Location: Cactus School
(34.5700°N, 118.0931°W)
Time: 11:18:30
(UTC-08:00)

Tiros 1 - Pass Details

Date: 24 November 2019
Orbit: 630 x 664 km, 48.4° (Epoch: 13 December)

Event Time Altitude Azimuth Distance (km) Brightness Sun altitude
Rises 10:45:14 0° 217° (SW) 2,917 11.0 33.4°
Reaches altitude 10° 10:47:36 10° 211° (SSW) 2,008 10.4 33.5°
Maximum altitude 10:52:03 49° 137° (SE) 810 9.1 33.7°
Drops below altitude 10° 10:56:30 10° 62° (ENE) 2,006 9.6 33.9°
Sets 10:58:52 0° 57° (ENE) 2,916 10.3 34.0°
